Regional Weather Roundup
Issued by NWS

Home | Current Version | Previous Version | Graphics & Text | Print | Product List | Glossary On
Versions: 1 2 3 4 5 6 7 8 9 10 11 12 13 14 15 16 17 18 19 20 21 22 23 24 25 26 27
000
ASUS43 KDMX 312207
RWRIA

WEATHER ROUNDUP FOR IOWA
NATIONAL WEATHER SERVICE DES MOINES IA
500 PM CDT FRI OCT 31 2014

NOTE: "FAIR" INDICATES FEW OR NO CLOUDS BELOW 12,000 FEET WITH NO
SIGNIFICANT WEATHER AND/OR OBSTRUCTIONS TO VISIBILITY.

* - THESE STATIONS ARE NOT NWS STATIONS...THUS NOT UNDER NWS
QUALITY CONTROL.  THEY ALSO DO NOT REPORT WEATHER SUCH
AS PRECIPITATION OR FOG.

IAZ001>003-012>014-020>022-031>034-043>046-312300-
   NORTHWEST IOWA

CITY           SKY/WX    TMP DP  RH WIND       PRES   REMARKS
CARROLL *      SUNNY     41  16  36 N8        30.46F
CHEROKEE *     SUNNY     41  16  36 NE3       30.47F
DENISON *      SUNNY     41  16  36 N8        30.45F
LE MARS *      SUNNY     41  16  36 VRB3      30.48F
ORANGE CITY *  SUNNY     43  10  26 CALM      30.47S
SHELDON *      SUNNY     39  14  35 VRB5      30.46S
SIOUX CITY     SUNNY     42  17  36 E3        30.49F
SPENCER        SUNNY     40  16  37 NE5       30.47F
STORM LAKE *   SUNNY     39  14  35 N5        30.47S
$$

IAZ055>058-069>071-079>083-090>094-312300-
   SOUTHWEST IOWA

CITY           SKY/WX    TMP DP  RH WIND       PRES   REMARKS
ATLANTIC *     SUNNY     41  18  38 N9        30.46S
AUDUBON *      SUNNY     41   9  26 N9        30.47F
CLARINDA *     SUNNY     45  18  33 N10       30.48F HAZE
COUNCIL BLFS * SUNNY     43  18  36 NE5G12    30.46S
CRESTON *      SUNNY     39  18  41 N10G17    30.45S WCI  32
HARLAN  *      SUNNY     41  16  36 NE8       30.50S
LAMONI         SUNNY     42  19  39 N13       30.44R
RED OAK *      SUNNY     43  18  36 N10       30.47F
SHENANDOAH *   SUNNY     45  18  33 N10       30.48S
$$

IAZ047>049-059>061-072>074-084-312300-
   CENTRAL IOWA

CITY           SKY/WX    TMP DP  RH WIND       PRES   REMARKS
AMES           SUNNY     41  17  38 N10       30.46S
ANKENY *       SUNNY     41  18  38 N9G17     30.46R
CHARITON *     SUNNY     41  19  42 N14       30.43S
DES MOINES     SUNNY     43  16  33 N13       30.46R
GRINNELL*      SUNNY     41  16  36 N9G18     30.43R
KNOXVILLE *    SUNNY     41  16  36 N13G20    30.42S
MARSHALLTOWN   SUNNY     40  17  39 N16       30.44R WCI  31
PELLA *        SUNNY     43  19  39 N13       30.44S
PERRY *          N/A     41  18  38 N8        30.47S
$$

IAZ004>006-015-016-023>025-035-036-312300-
   NORTH CENTRAL IOWA

CITY           SKY/WX    TMP DP  RH WIND       PRES   REMARKS
ALGONA *       SUNNY     39  16  38 N9        30.48R WCI  33
CLARION *      SUNNY     39  16  38 N12       30.47R WCI  32
ESTHERVILLE    SUNNY     39  15  37 N9        30.47S WCI  33
FORT DODGE *   SUNNY     39  16  38 N6        30.48S WCI  35
MASON CITY     SUNNY     39  18  42 N12       30.47S WCI  32
FOREST CITY *  SUNNY     37  21  52 N10       30.46S WCI  30
IOWA FALLS *     N/A     41  18  38 N12       30.46R
$$

IAZ007>011-017>019-026>030-037>042-050>054-066-312300-
   NORTHEAST IOWA

CITY           SKY/WX    TMP DP  RH WIND       PRES   REMARKS
CEDAR RAPIDS   CLEAR     41  18  39 N16G24    30.40R
CHARLES CITY * CLEAR     39  18  41 N12G18    30.46R WCI  32
CLINTON *      PTCLDY    39  18  41 N15       30.40R WCI  31
DECORAH *      CLEAR     37  18  44 N10G16    30.42S WCI  30
DUBUQUE        CLEAR     38  19  46 N17G26    30.38R WCI  28
MONTICELLO *   CLEAR     41  19  42 N15       30.40R
OELWEIN *      CLEAR     39  18  41 N16G22    30.43R WCI  30
WATERLOO       CLEAR     40  18  41 N15       30.44R WCI  32
$$

IAZ064-065-067-068-078-312300-
   EAST CENTRAL IOWA

CITY           SKY/WX    TMP DP  RH WIND       PRES   REMARKS
DAVENPORT      PTCLDY    41  17  38 N18       30.37R
IOWA CITY      CLEAR     42  20  41 N16G29    30.42R
MT. PLEASANT * SUNNY     41  19  42 N16G24    30.39R
MUSCATINE *    CLEAR     43  19  39 N16       30.40R
QUAD CITIES    PTCLDY    42  18  37 N15G24    30.36R
$$

IAZ062-063-075>077-085>089-095>099-312300-
   SOUTHEAST IOWA

CITY           SKY/WX    TMP DP  RH WIND       PRES   REMARKS
BURLINGTON     PTCLDY    43  20  39 N17G23    30.37R
FAIRFIELD *    SUNNY     43  18  36 N16       30.40R
FORT MADISON * MOSUNNY   45  23  42 N13       30.39R
KEOKUK *       SUNNY     43  19  39 N15G25    30.37S
OSKALOOSA *      N/A     43  18  36 N16       30.42S
CENTERVILLE *  SUNNY     41  18  38 N13G21    30.43S
OTTUMWA        SUNNY     42  18  37 N14       30.42R
WASHINGTON *   SUNNY     43  19  39 N17G24    30.40R
$$

ABBREVIATIONS USED IN REMARKS
   TC - TEMPERATURES IN CELSIUS
  WCI - WIND CHILL INDEX
   HX - HEAT INDEX
  VSB - VISIBILITY
$$




USA.gov is the U.S. government's official web portal to all federal, state and local government web resources and services.